User: anonymous   Login
Location: Unspecified
(0.0000°N, 0.0000°E)
Time: 16:25:47
(UTC+00:00)
Language:

Altair - Orbit

View from above orbital plane
View from above orbital plane
View from above satellite
View from above satellite

Ground track
Ground track

The orbit data is extracted from the following two-line orbital elements,

1    50U 60009B   20292.90002910 -.00000132 +00000-0 -43834-3 0  9999
2    50 047.2302 098.1323 0113313 333.6294 025.8758 12.20112793685296
Epoch (UTC): 18 October 2020 21:36:02
Eccentricity: 0.0113313
inclination: 47.2302°
perigee height: 1502 km
apogee height: 1682 km
right ascension of ascending node: 98.1323°
argument of perigee: 333.6294°
revolutions per day: 12.20112793
mean anomaly at epoch: 25.8758°
orbit number at epoch: 68529

The dashed part of the orbit path shows where the satellite is in the earth's shadow,  

DLR